Theta_e
349 348 345 341 340 340 339 338 337 335 333 331 329 327 326 323 319 318 318 320 326 332 335 336 336 337 336 336 336 335 335 335 333 332 332 330 323 316 316 314 315 315 315 314 311 311 311 310 310 310 310 310 310 309 309 309 308 311 315 315 315 315 314 313 316 325 330 330 330 329 327 326 328 329 330 330 329 330 331 333 335 336 336 336 336
349 348 344 342 341 340 339 338 337 335 332 330 329 328 328 324 321 319 319 321 322 326 330 333 335 337 336 336 336 335 334 331 329 329 330 327 321 316 316 314 315 314 315 314 312 311 310 310 310 310 310 309 309 309 310 309 309 313 317 318 317 317 316 312 312 318 326 329 329 329 328 325 328 330 330 330 329 330 331 334 335 336 336 336 336
348 347 343 342 341 340 339 339 337 335 331 329 329 329 329 326 323 319 319 322 323 324 326 329 334 336 336 336 335 334 331 328 326 325 324 322 319 316 315 315 317 322 323 315 311 311 309 309 309 310 309 309 309 310 311 311 311 312 315 318 318 318 318 315 313 312 320 327 328 329 328 325 327 329 330 330 330 330 331 332 334 335 336 336 336
347 345 342 342 341 341 340 338 337 334 330 329 328 330 330 327 324 320 319 321 323 325 324 326 331 334 335 336 334 332 329 326 324 321 320 319 318 316 316 321 327 334 331 315 311 310 309 309 309 309 309 311 311 312 315 315 314 316 315 317 320 320 318 317 314 312 314 321 326 328 328 326 326 329 330 329 329 329 330 332 333 334 335 335 335
347 344 342 342 341 341 339 338 337 334 330 329 328 330 330 327 326 322 319 318 321 323 323 323 325 330 334 334 332 330 328 326 324 322 319 318 318 316 319 329 334 336 329 313 311 311 309 309 309 310 314 316 316 319 319 318 318 319 318 317 320 320 318 316 314 311 311 315 320 324 326 328 327 328 330 330 329 328 329 330 332 333 333 334 333
346 344 342 341 341 340 339 338 337 333 329 329 328 330 330 328 326 324 320 318 318 318 320 320 321 326 332 333 332 331 331 329 331 329 321 318 318 316 319 327 332 331 322 311 312 311 310 311 314 318 323 324 324 326 323 321 320 318 318 318 319 319 318 317 314 311 310 311 314 317 319 323 325 326 329 329 327 326 326 327 329 330 332 332 331
344 341 340 339 340 339 339 338 337 333 329 329 329 330 330 328 326 325 322 318 317 317 318 319 320 323 329 333 335 336 335 335 336 334 326 320 318 318 318 320 325 325 318 312 314 313 313 316 321 324 326 326 325 328 325 322 320 319 320 319 318 318 319 318 315 310 309 309 311 314 315 317 319 322 327 326 325 325 323 325 326 327 330 331 329
340 338 338 338 338 339 339 338 337 333 329 330 329 330 330 329 327 325 323 319 317 318 318 320 322 323 326 331 334 336 336 337 336 332 328 324 321 322 320 321 324 323 316 314 318 317 318 322 325 325 324 325 324 325 324 321 321 322 322 320 320 319 320 318 314 310 308 308 310 312 313 313 314 319 324 323 323 321 318 320 321 323 326 327 326
337 335 335 336 337 338 338 338 337 332 329 330 330 330 331 330 329 326 324 320 317 318 318 321 328 327 328 330 331 333 333 334 332 329 328 325 323 324 323 325 325 323 315 315 320 320 324 327 325 324 324 324 323 323 323 322 322 324 324 322 321 321 320 316 313 311 309 308 309 311 311 312 312 316 320 319 319 317 313 315 316 318 319 320 320
334 333 333 335 337 338 337 338 337 333 330 329 330 331 331 332 331 328 325 322 318 319 318 321 329 330 331 332 330 332 331 330 328 326 326 324 323 322 323 324 319 318 316 317 320 321 325 326 323 324 323 324 324 324 324 324 324 324 325 323 322 322 319 315 313 312 311 308 308 311 312 312 312 315 316 315 316 314 313 313 313 313 313 313 314
332 332 334 335 337 337 337 337 336 333 329 329 330 331 332 332 332 330 326 324 319 319 319 321 327 330 330 331 330 331 330 330 329 328 327 324 324 321 321 321 316 316 316 318 320 320 322 322 323 325 324 325 324 323 322 324 325 325 325 323 323 322 318 316 315 313 312 310 308 309 310 310 312 318 319 316 315 315 315 314 312 312 311 311 311
331 333 334 336 337 337 337 337 337 334 329 329 330 331 332 333 333 331 327 325 321 319 320 323 327 329 330 329 330 331 332 332 332 332 330 327 325 321 319 320 317 314 314 316 317 319 320 322 324 325 325 325 324 321 321 324 325 325 324 323 324 322 318 318 317 313 312 311 310 308 309 309 312 317 320 318 317 316 315 313 312 312 312 311 310
331 333 335 336 336 337 337 337 337 335 331 329 329 331 332 333 334 332 327 323 323 322 321 325 327 327 328 328 329 331 331 330 329 330 327 324 323 320 317 319 317 313 314 315 317 320 322 324 325 325 323 322 322 320 321 324 325 325 324 323 324 322 319 321 319 314 313 312 311 310 308 308 309 313 316 317 315 314 312 310 310 310 311 311 310
331 332 334 335 336 337 337 337 337 335 332 329 329 330 332 333 335 333 327 323 325 325 323 326 327 327 327 327 326 326 326 325 325 327 324 321 320 319 317 318 317 314 315 317 319 323 324 326 326 325 323 320 319 319 321 323 325 326 324 324 325 322 321 322 322 317 314 312 312 311 309 309 308 308 311 312 311 311 310 310 309 309 310 310 309
331 332 333 335 336 336 337 337 337 336 334 330 328 330 332 334 335 335 327 322 326 325 325 329 330 329 327 325 324 324 325 325 326 327 327 325 322 320 319 318 317 316 317 319 322 325 327 327 327 324 322 320 319 318 320 322 325 325 324 326 326 324 323 324 323 319 316 314 313 311 310 309 309 308 308 308 309 310 310 309 310 310 310 309 309
331 331 332 335 336 336 337 337 337 337 335 331 329 330 333 334 336 336 327 320 323 324 324 328 329 328 328 328 328 328 328 327 328 327 328 328 327 325 323 321 319 316 318 322 325 329 330 329 328 325 322 321 321 319 319 322 325 325 325 326 326 325 326 325 323 320 317 315 314 312 311 310 310 309 308 308 308 309 309 309 309 309 309 309 309
331 331 331 334 335 337 337 337 337 337 336 333 330 330 333 334 336 335 324 319 322 324 325 327 328 328 329 330 332 332 330 330 329 328 328 329 330 329 328 325 323 319 317 321 327 331 332 330 329 327 324 324 323 321 320 323 325 325 325 325 325 325 326 327 324 320 319 317 315 313 311 311 310 310 308 308 308 308 308 309 309 309 308 308 309
331 330 330 332 335 337 337 337 337 337 336 333 330 332 333 333 336 332 321 321 323 324 327 329 330 331 332 332 331 332 333 332 330 329 328 328 330 330 330 327 325 323 319 320 326 331 332 331 330 330 328 326 325 324 322 324 326 326 324 324 324 325 327 327 326 322 319 317 317 315 313 311 311 311 309 308 308 308 308 308 308 308 308 308 308
330 329 329 331 333 336 337 337 337 337 337 334 332 333 333 334 336 329 320 324 326 327 331 332 332 332 333 332 331 331 332 332 331 330 328 327 327 327 328 324 320 322 322 320 324 330 332 332 332 331 331 328 325 325 325 325 326 325 325 324 324 326 326 327 326 324 321 318 317 316 315 313 312 311 311 310 309 308 308 308 308 308 308 308 308
330 329 330 332 333 335 337 338 337 337 337 335 332 332 333 335 335 326 321 328 329 330 333 333 333 333 333 332 331 330 331 331 330 328 324 322 321 320 321 319 316 317 320 320 321 325 330 332 332 332 332 329 325 326 327 327 327 326 326 325 325 326 326 326 327 325 323 320 318 317 316 315 314 312 311 311 310 309 308 307 307 307 307 308 308
332 331 332 332 333 335 337 337 337 338 337 336 333 332 332 336 334 323 323 331 331 332 333 333 333 332 333 332 331 329 328 328 327 324 320 320 319 319 319 318 318 317 317 319 319 321 324 329 332 332 333 331 327 327 329 330 329 327 327 327 327 327 325 326 327 326 325 322 320 319 317 316 316 314 312 311 311 309 308 307 307 307 307 307 307
333 333 332 332 331 334 337 337 337 338 337 336 334 333 334 336 331 322 326 333 332 333 332 332 333 332 332 331 330 329 326 325 326 324 321 320 320 320 320 319 320 319 318 317 318 318 320 323 326 329 332 333 329 328 330 331 331 329 329 329 329 328 326 326 327 328 327 324 322 320 319 318 317 316 314 312 311 310 309 308 307 307 307 306 307
332 332 333 333 332 334 336 336 336 337 337 335 334 333 335 335 327 320 328 334 333 333 332 331 332 332 331 330 330 328 326 326 327 326 322 321 321 321 321 320 320 320 320 319 318 317 318 319 320 322 327 331 330 328 330 332 332 332 331 330 330 328 327 326 327 328 327 325 324 322 321 319 318 317 316 314 312 311 310 309 308 307 306 306 306
332 331 333 333 333 333 335 336 336 337 336 335 334 333 335 333 324 321 329 333 333 333 332 332 332 331 330 329 329 327 326 327 327 326 324 322 321 322 321 321 321 320 321 320 319 318 317 317 317 318 321 327 330 330 331 332 333 333 332 331 330 329 327 327 328 329 328 327 327 324 323 321 320 319 317 315 312 311 310 309 309 307 307 306 306
333 331 333 335 334 334 335 335 336 337 336 335 333 333 335 330 321 323 330 332 332 333 332 332 331 328 328 327 327 326 326 326 326 326 325 323 322 322 322 321 321 321 321 320 320 320 318 316 316 317 318 321 326 330 331 332 333 334 333 332 330 329 328 327 328 329 329 329 328 326 325 323 321 320 319 318 314 311 311 310 309 308 307 306 306
332 331 334 335 333 333 334 334 335 336 335 335 333 334 335 328 321 325 331 332 333 332 331 330 328 326 325 326 327 325 325 327 327 326 325 324 323 322 322 322 321 320 320 320 320 320 319 317 317 317 317 318 321 326 330 332 333 334 333 332 330 329 329 329 329 330 329 330 330 328 325 323 321 321 321 320 316 312 310 310 309 308 308 307 307
332 331 333 333 332 332 333 332 333 335 335 334 333 334 335 326 322 328 332 332 333 331 330 328 326 325 325 326 326 325 325 327 327 326 326 324 323 322 323 322 322 321 320 320 320 320 319 319 319 318 318 319 319 323 327 329 332 334 333 331 330 330 330 330 330 330 330 330 330 329 326 324 321 320 321 321 318 314 311 310 310 309 308 308 307
333 332 332 332 332 331 331 331 332 334 334 334 333 335 334 326 323 330 332 332 333 331 329 327 324 324 325 326 326 325 325 326 327 326 326 325 324 324 326 325 324 325 323 321 321 322 321 321 322 321 322 322 321 322 323 326 331 333 333 331 329 330 330 330 331 331 331 331 330 328 326 324 321 320 320 320 318 315 311 310 310 309 308 308 308
334 333 333 332 332 330 331 332 332 332 333 333 333 335 333 326 323 329 332 332 332 331 330 326 323 323 325 326 326 325 325 325 326 327 327 327 327 327 329 328 327 327 327 326 325 324 324 324 324 323 324 325 324 324 324 326 331 333 333 331 330 330 329 330 331 331 332 331 329 327 325 323 321 320 320 321 319 318 315 311 310 310 309 309 308
335 333 334 333 332 331 331 333 332 332 332 332 333 333 331 325 323 328 331 332 332 331 330 326 323 323 325 327 326 325 326 325 326 327 327 327 327 328 329 328 328 327 327 328 328 327 327 326 326 325 326 326 326 326 326 328 331 333 333 332 331 329 328 329 330 331 331 330 328 326 325 323 321 319 320 322 321 321 320 316 313 312 310 310 310
335 334 335 334 334 332 332 332 332 332 332 332 332 331 329 324 323 327 330 332 332 330 329 326 323 323 326 328 326 325 325 325 326 327 327 327 326 326 327 327 327 327 327 328 328 327 327 327 327 327 327 327 327 327 327 327 329 330 331 330 330 328 328 329 330 331 330 329 328 326 324 322 321 319 320 322 320 321 323 322 320 316 315 315 312
336 335 335 335 334 334 333 333 332 332 332 332 331 330 328 325 322 326 330 331 331 329 328 326 323 323 325 327 326 324 324 324 326 327 327 326 325 325 326 326 325 327 327 327 327 327 327 327 328 328 327 327 327 327 328 327 328 328 329 329 329 329 330 330 330 330 330 329 328 326 324 323 322 319 320 320 318 320 323 325 323 320 321 318 313
336 335 335 335 335 334 334 334 333 332 332 332 332 330 328 326 323 325 330 331 331 329 327 325 323 323 325 326 325 324 325 325 326 327 326 325 325 324 325 326 326 326 327 327 327 328 328 327 327 327 327 327 327 328 328 328 328 328 328 329 329 329 331 331 330 329 329 329 326 324 324 323 321 320 321 319 317 319 324 325 321 318 319 316 314
336 336 336 335 335 335 334 334 334 333 332 333 333 331 330 328 325 326 329 331 331 329 327 325 323 323 324 325 325 326 326 327 326 326 326 325 325 324 325 326 326 326 327 327 328 328 328 327 326 326 326 328 328 328 328 328 328 328 327 327 328 329 330 331 329 328 328 327 325 324 323 321 321 322 323 322 319 319 322 324 322 318 319 319 319
337 336 335 335 335 335 335 335 334 334 333 334 333 332 332 330 328 328 330 332 331 329 327 326 324 324 325 325 326 327 327 327 327 326 326 326 326 325 324 325 325 326 326 327 328 327 327 327 326 325 325 327 328 327 328 328 327 327 327 326 327 328 330 330 329 329 328 325 324 324 322 321 323 324 325 325 325 322 321 323 323 322 323 324 325
337 336 336 335 335 335 335 335 334 334 334 334 333 332 332 331 330 330 331 332 330 329 327 326 325 325 326 327 328 328 327 327 327 327 326 326 326 326 325 326 325 326 326 326 327 327 327 327 326 325 326 326 326 327 327 328 327 327 326 326 327 328 330 329 329 330 328 326 325 323 321 322 324 326 326 326 326 325 323 323 324 325 326 327 327
336 336 336 335 335 335 335 335 335 334 334 334 333 332 332 332 331 331 331 331 331 329 327 326 326 326 326 327 328 328 328 328 328 328 328 327 327 328 327 326 326 326 326 326 326 326 326 326 325 325 325 325 326 326 327 327 327 327 326 326 328 329 330 330 330 329 328 327 327 324 323 325 326 326 327 326 326 325 325 325 326 326 327 327 327
337 336 337 336 336 336 336 336 335 334 334 334 333 332 332 332 332 331 331 330 330 329 326 326 327 327 327 328 328 328 328 328 328 328 328 328 328 328 328 327 327 327 327 326 326 326 326 325 324 325 325 326 326 326 327 327 327 326 326 327 328 329 329 329 330 329 327 327 327 325 324 325 326 326 327 326 325 326 325 325 326 326 326 326 326
338 338 338 338 337 337 336 336 336 335 334 334 333 333 333 332 331 330 330 329 329 328 326 326 327 327 327 327 328 328 328 329 329 328 328 329 329 328 328 327 327 327 326 326 326 326 326 324 324 325 325 326 327 327 327 327 327 326 326 327 328 330 329 328 329 328 327 327 327 326 325 326 326 326 326 326 325 325 325 325 324 325 325 324 324
339 340 340 338 338 337 336 336 336 335 335 334 333 332 332 330 330 329 329 329 328 327 327 327 327 328 328 328 328 328 328 329 329 329 329 329 329 328 328 327 327 327 327 327 326 326 326 325 325 326 326 327 327 327 327 327 327 326 326 326 327 329 328 327 328 328 327 327 327 326 326 326 326 326 326 325 325 325 325 325 324 324 324 324 324
340 341 340 339 339 337 335 335 334 334 334 333 333 331 330 330 328 328 329 329 328 327 327 328 328 328 329 328 328 328 328 329 328 328 328 329 329 328 328 328 328 328 328 327 326 326 326 325 325 326 327 327 327 327 327 326 326 326 326 326 327 328 327 327 328 328 327 327 327 326 326 326 326 326 325 325 325 325 325 325 324 325 325 325 324
340 340 339 339 338 336 334 334 333 332 332 331 330 330 330 329 328 328 329 328 327 328 328 328 329 329 328 327 327 328 328 327 326 326 327 328 329 328 328 328 328 328 328 326 326 326 326 325 325 325 327 327 327 327 327 326 326 327 326 326 327 327 327 327 327 328 327 327 327 326 326 327 326 326 326 325 325 325 326 325 324 325 325 324 323
339 338 338 338 337 335 333 333 332 331 330 329 329 330 329 329 328 328 328 327 328 329 329 329 329 328 327 327 327 326 326 325 325 325 326 326 328 328 328 327 327 327 326 326 326 326 326 326 325 325 327 327 328 328 327 327 327 326 327 326 326 327 328 327 327 328 327 328 327 326 326 326 326 326 326 326 326 326 326 325 324 324 324 323 320
338 337 337 337 335 334 332 332 332 330 329 329 329 330 329 329 329 328 328 328 329 329 330 329 328 326 326 327 327 326 326 325 325 326 325 326 327 327 326 326 326 326 325 325 325 325 325 326 325 325 327 327 327 328 328 328 327 327 326 325 325 326 328 327 327 327 327 327 327 326 326 326 326 326 326 326 326 326 325 325 324 324 323 321 318
332 333 334 335 334 332 332 332 331 330 329 329 330 330 330 329 329 329 329 329 330 329 329 326 325 325 327 327 326 326 326 326 325 326 326 327 326 325 325 325 325 324 325 324 324 322 323 325 326 325 326 327 327 328 328 328 327 327 326 325 325 326 326 326 326 327 327 326 326 326 326 326 326 326 326 326 325 325 325 325 324 323 321 319 318
331 330 332 334 333 331 332 332 330 329 329 330 331 330 329 329 328 329 329 328 329 328 326 324 323 324 326 326 326 326 326 326 325 326 326 326 325 325 325 325 325 325 325 325 324 323 323 325 326 325 326 327 327 328 328 328 328 327 326 325 325 325 325 324 325 326 326 326 326 326 325 325 326 326 325 325 325 325 324 323 322 319 318 317 317
334 334 333 333 332 331 331 331 330 329 330 330 330 329 328 328 329 328 328 328 328 326 324 324 323 325 326 326 326 326 326 326 326 325 325 325 325 325 325 325 326 326 326 326 325 324 324 326 326 325 326 326 326 327 328 328 328 327 327 326 325 325 325 324 324 325 326 326 326 325 325 326 326 325 324 324 323 322 320 319 318 317 316 315 315
333 334 333 333 332 331 331 331 330 330 331 330 329 328 326 327 329 329 328 328 328 324 323 324 323 324 326 326 325 325 325 325 326 326 325 324 324 325 325 325 326 325 326 326 326 325 325 326 326 325 325 325 325 326 327 327 327 327 327 326 326 325 325 325 325 325 325 326 326 325 325 325 325 323 321 319 317 315 314 314 314 314 312 312 312
332 333 333 333 332 331 331 331 332 332 331 330 328 327 327 327 329 329 328 328 327 325 324 325 324 323 324 324 323 322 322 322 323 323 323 323 322 323 324 324 325 325 325 325 326 326 325 326 326 325 325 324 324 324 325 327 326 326 326 326 326 325 324 325 325 325 324 325 325 325 324 324 323 320 317 315 313 312 311 311 311 310 309 307 307
333 334 333 333 332 332 330 331 332 333 332 330 328 327 328 329 329 329 328 328 327 326 326 325 324 322 322 322 321 320 318 318 318 318 317 316 315 317 319 321 324 325 325 325 325 325 325 325 326 326 325 324 324 323 323 325 325 325 325 325 325 325 324 325 325 325 324 323 323 324 324 323 321 318 316 314 312 310 309 308 309 308 306 305 304
333 333 333 333 333 332 331 331 332 333 332 331 329 329 329 330 330 328 327 326 326 326 325 323 322 322 321 321 319 318 317 317 317 316 315 311 310 313 317 319 322 323 324 325 325 325 325 325 325 324 325 325 324 324 323 323 323 324 325 325 325 325 324 324 325 324 324 323 323 324 324 322 318 317 316 312 309 308 307 306 306 306 305 305 305
Wind_Speed
28 26 27 28 25 23 22 21 21 21 20 18 17 16 16 15 14 15 17 19 20 20 20 19 19 20 19 19 18 16 15 14 13 12 11 9 9 10 11 12 12 12 13 13 14 15 15 15 16 17 18 17 17 18 19 21 23 26 27 28 28 27 25 24 22 21 23 21 21 21 21 21 20 19 19 19 19 17 17 18 18 18 18 19 19
31 28 28 29 25 24 23 22 22 22 20 18 18 17 16 15 15 14 16 17 19 20 20 20 20 20 20 19 18 16 15 14 13 12 11 10 10 11 12 12 12 12 13 14 14 15 16 16 17 18 17 17 17 17 18 21 24 26 27 27 28 28 27 26 24 21 21 22 22 21 20 20 19 18 18 18 17 16 16 16 17 18 18 18 18
32 29 30 29 26 24 23 22 22 22 20 19 19 18 16 15 15 15 15 16 18 19 20 21 21 21 20 19 18 16 15 14 13 12 11 10 11 11 12 13 13 14 14 15 15 15 17 17 18 17 16 16 17 16 16 21 23 24 26 27 27 28 28 26 25 22 19 22 24 22 21 19 18 17 17 17 16 15 14 14 15 16 17 17 17
32 30 31 29 26 25 24 23 23 22 21 20 19 18 17 16 15 15 15 16 17 19 19 20 21 22 21 19 18 16 15 14 13 12 12 11 12 13 14 15 16 17 16 16 16 16 17 18 17 16 15 15 15 15 15 19 22 22 25 26 27 27 28 27 25 24 20 19 22 22 22 20 18 17 17 16 15 14 13 13 14 14 14 15 15
31 30 31 30 27 26 24 23 23 22 21 20 19 18 17 16 15 15 15 16 17 18 19 20 21 21 20 19 18 16 15 14 13 12 12 13 13 14 15 17 17 17 15 17 18 17 18 17 17 16 15 15 14 14 15 18 20 21 22 24 26 27 27 27 25 24 21 18 18 20 20 19 17 17 17 16 15 14 13 12 12 12 12 13 13
31 30 31 30 28 26 25 24 24 22 21 20 19 18 17 16 15 15 15 15 16 17 18 19 20 20 20 18 17 16 15 14 14 12 12 13 14 14 16 17 17 16 16 18 18 18 18 17 17 17 16 15 14 14 14 16 19 21 21 22 25 26 26 27 25 23 21 19 17 17 19 18 17 16 15 15 15 14 13 12 12 11 11 11 11
28 28 30 30 28 27 25 24 24 23 21 20 19 18 17 15 15 14 14 14 16 17 18 18 18 20 21 19 17 16 16 15 15 13 12 13 13 14 16 16 16 16 17 19 18 18 18 17 17 16 15 15 14 14 15 17 20 22 22 22 23 25 26 26 25 23 21 20 17 17 18 18 17 16 13 12 13 12 12 13 12 11 11 10 8
27 27 29 28 28 27 26 25 24 23 21 20 20 18 17 15 14 14 14 14 15 17 18 18 17 18 20 20 18 17 17 16 15 15 13 13 13 14 15 16 16 16 19 20 19 18 18 17 16 15 15 14 13 14 17 19 20 22 22 22 23 24 25 25 25 23 21 20 18 16 16 17 17 16 12 11 11 10 11 12 12 11 10 9 7
27 27 27 27 27 27 26 25 25 24 22 21 20 18 16 15 13 14 14 14 15 16 18 18 18 17 17 18 18 17 17 16 15 15 13 12 13 13 14 15 16 17 20 21 19 19 18 17 16 15 14 13 13 14 18 20 20 21 21 21 22 23 24 24 24 23 22 21 19 16 15 16 16 15 13 12 11 10 11 11 11 10 9 8 7
27 27 27 27 27 27 26 25 26 25 23 22 20 18 16 14 13 13 14 14 15 16 17 18 18 17 17 17 17 16 16 15 13 13 12 11 11 11 13 14 15 17 21 21 19 19 18 17 16 15 13 13 12 14 18 19 19 19 20 21 22 23 23 23 23 23 23 22 20 18 17 18 18 17 15 15 13 12 12 11 11 9 8 8 7
26 27 27 27 27 26 26 26 26 25 23 22 20 18 16 14 13 13 14 14 15 15 16 17 18 17 17 16 16 15 14 13 12 12 12 11 10 10 12 13 14 17 21 20 19 19 17 17 15 14 13 12 11 13 17 18 17 18 19 20 21 22 23 23 23 23 23 22 21 19 18 19 19 17 16 17 17 16 14 13 12 11 10 10 9
26 27 26 26 26 26 26 26 26 25 23 21 20 18 16 14 13 12 13 13 13 14 15 16 17 16 16 16 15 14 13 12 11 10 10 10 10 10 10 12 14 16 20 20 19 18 17 16 15 14 13 11 10 12 16 17 16 17 17 19 20 22 22 22 22 22 22 21 21 20 19 19 18 16 15 16 17 17 16 16 16 14 14 14 13
26 26 26 25 26 26 26 26 26 24 22 21 20 18 16 14 12 11 11 12 13 14 15 16 17 16 15 15 14 13 13 11 10 9 9 9 9 9 10 12 14 16 19 19 19 18 18 16 15 14 12 10 9 10 14 15 15 15 16 17 19 20 21 21 21 21 21 20 20 19 19 19 18 17 16 16 16 17 17 17 18 17 17 17 17
26 26 25 26 26 27 26 26 25 23 22 20 19 18 16 13 12 11 11 11 13 14 15 16 17 16 15 14 14 13 12 12 11 10 10 10 10 10 11 13 15 17 20 20 19 19 18 17 16 14 11 10 8 8 12 14 14 14 14 16 17 19 19 19 20 21 20 19 18 17 17 18 18 17 17 17 17 17 17 17 17 18 17 18 18
26 26 25 26 27 27 26 26 24 23 21 20 19 18 16 13 12 11 10 12 14 14 15 16 16 16 15 14 14 13 13 13 12 12 12 11 10 11 12 15 18 19 21 21 20 20 19 18 16 14 12 10 8 7 9 12 12 12 13 14 16 17 17 18 19 19 19 19 17 16 16 17 17 17 17 16 16 16 16 16 17 17 17 17 17
24 25 26 27 27 27 27 26 24 22 21 19 19 18 16 14 12 11 10 11 13 14 15 15 16 15 14 13 13 13 13 13 13 13 13 12 11 11 12 15 19 19 21 22 22 22 20 19 17 15 13 11 9 7 7 9 10 11 12 13 14 15 16 16 18 18 18 18 17 15 15 16 16 15 15 15 15 15 15 16 16 16 16 16 15
24 25 26 27 27 28 28 26 24 22 20 19 18 18 16 14 12 11 10 12 13 14 14 15 15 15 14 14 14 14 14 14 14 13 13 13 12 12 12 14 17 18 20 22 23 23 21 19 18 16 14 12 10 7 6 7 8 10 11 11 12 13 14 15 16 17 17 17 17 16 14 14 14 14 14 14 13 13 14 14 14 15 15 15 14
25 26 26 26 28 28 28 26 25 23 21 20 19 18 16 14 12 11 11 13 14 14 15 15 15 15 15 14 14 13 14 14 14 13 12 13 13 13 12 12 15 18 19 21 23 23 22 21 19 17 14 12 10 8 7 6 7 9 9 10 11 12 12 13 14 15 16 16 16 15 14 13 12 13 13 13 12 12 12 13 13 13 13 13 13
26 26 26 26 27 28 28 27 25 24 22 21 20 19 16 14 12 11 12 14 14 15 15 15 15 14 14 14 13 12 12 13 12 11 11 11 12 13 12 12 14 18 19 20 22 23 23 22 20 18 15 13 11 10 8 6 6 7 8 9 9 10 11 12 12 14 14 15 15 14 13 12 11 11 11 11 11 11 11 11 11 11 11 11 12
26 26 25 25 27 27 28 26 25 24 23 22 21 20 17 15 13 12 13 15 15 15 15 14 14 14 13 14 14 13 12 12 11 10 11 11 12 11 11 11 13 15 18 20 22 23 23 22 21 19 17 15 13 11 10 8 6 6 7 8 9 8 9 10 11 12 12 13 13 13 12 11 10 9 9 9 10 10 10 10 10 10 10 10 10
23 23 23 23 26 27 28 25 25 24 23 23 21 20 17 16 14 14 15 15 16 15 15 15 14 14 13 13 13 12 12 11 11 11 11 12 11 11 11 11 11 12 15 17 20 22 22 22 22 20 19 18 16 14 12 10 8 6 6 7 8 7 8 9 9 10 11 11 11 11 11 11 9 8 7 7 8 8 8 8 8 8 9 8 9
21 22 22 23 25 27 27 25 25 24 24 23 22 21 19 17 15 16 17 16 16 16 15 15 14 13 12 13 12 11 11 11 11 11 11 11 11 11 10 10 10 11 12 14 16 19 21 22 22 21 20 19 17 16 14 11 9 8 7 7 7 7 7 8 8 8 9 10 10 10 10 10 9 7 6 5 6 6 7 7 7 8 7 7 7
22 23 22 23 25 27 27 25 25 25 24 23 23 21 19 18 16 17 18 16 16 15 14 14 14 13 13 12 12 11 11 11 11 10 10 10 10 9 9 8 8 9 9 11 12 15 17 19 20 20 21 20 19 17 16 13 10 9 8 7 7 7 7 7 8 8 9 9 9 10 10 10 9 8 5 4 4 4 5 5 6 6 6 6 6
23 24 23 23 25 26 26 25 25 25 25 24 23 22 19 17 17 17 17 16 15 14 13 13 14 13 12 12 11 11 11 11 11 10 9 8 8 7 7 6 6 6 7 7 8 10 13 16 18 19 21 21 21 19 18 15 12 10 8 8 8 7 7 6 7 8 8 8 9 9 9 9 9 8 6 4 2 2 3 4 4 5 5 5 5
23 23 22 23 24 26 25 25 25 26 26 24 23 22 19 18 17 18 16 16 15 14 13 13 13 12 12 12 11 10 10 10 10 9 8 7 6 6 6 5 5 5 5 6 6 7 9 11 13 17 19 22 22 21 20 16 13 11 9 9 7 7 6 6 6 7 6 7 7 8 9 8 8 7 7 5 2 2 2 2 3 3 3 3 4
24 23 23 23 24 25 25 24 25 26 26 24 23 21 19 18 18 18 16 15 14 13 13 12 12 11 11 11 10 10 9 9 9 9 9 7 6 6 5 5 3 3 4 5 5 5 7 8 10 13 17 20 21 21 20 18 14 12 10 9 8 7 6 6 6 6 5 5 6 7 8 7 7 6 6 6 4 2 2 2 2 2 2 2 2
26 24 24 24 23 24 24 24 25 26 25 24 23 21 19 18 18 17 16 15 13 12 12 11 12 12 12 11 10 9 9 10 10 9 9 8 6 6 5 4 3 2 3 4 4 5 6 8 9 12 14 17 18 19 19 19 16 13 11 10 8 7 6 5 6 5 4 5 5 6 7 6 6 5 5 5 5 2 2 3 2 2 2 1 1
27 25 25 25 24 24 23 23 23 24 24 24 23 21 19 18 18 17 15 14 12 11 11 11 12 12 12 11 11 9 10 10 10 9 9 8 7 7 6 5 5 3 4 4 5 5 6 8 10 11 13 13 14 16 18 18 17 14 12 10 9 7 6 5 5 5 4 4 4 5 5 5 4 4 4 4 4 2 2 3 3 2 2 1 1
28 28 26 25 24 23 23 22 22 23 23 24 23 20 18 18 18 17 15 14 11 11 11 11 13 13 12 11 11 10 10 10 9 8 9 9 8 8 7 6 6 4 4 5 5 5 6 8 9 10 11 11 11 12 14 16 16 14 12 10 8 6 4 4 5 4 3 3 3 3 3 4 4 3 3 3 4 3 3 2 2 2 1 1 1
29 28 27 25 25 24 24 23 22 22 22 23 22 20 18 18 18 16 15 14 11 12 12 12 12 12 11 11 11 10 10 9 8 8 9 9 8 8 8 7 6 6 5 5 5 5 6 7 8 10 10 10 9 10 10 12 14 14 12 10 8 6 5 4 4 3 3 3 3 2 3 3 3 4 3 3 5 4 4 3 2 1 1 2 3
27 25 26 25 25 25 24 23 23 23 22 22 21 20 18 17 17 16 14 13 12 12 12 12 12 12 11 11 10 9 10 9 9 8 8 8 7 7 7 7 7 7 7 6 6 5 6 7 8 9 10 9 9 9 9 10 11 12 12 10 9 7 5 5 4 4 4 3 2 2 2 2 3 4 4 3 4 5 6 5 4 4 2 3 5
27 25 25 26 27 26 24 24 24 23 22 21 20 19 17 17 17 16 14 13 12 12 12 12 13 12 11 11 9 9 9 9 8 8 7 6 5 6 6 7 7 7 7 7 7 5 4 6 7 8 9 10 9 9 9 9 10 11 10 9 8 7 6 6 6 6 6 4 3 2 2 2 3 4 4 3 4 7 7 6 6 5 4 5 8
30 27 27 27 27 26 25 25 24 23 22 20 19 18 17 17 16 15 14 13 13 12 12 12 13 12 11 10 9 9 8 8 7 7 6 5 4 4 5 6 6 7 7 7 7 5 4 4 6 7 8 10 10 9 9 9 9 9 8 7 7 6 7 7 8 8 7 5 4 4 3 3 3 4 5 6 7 10 10 6 7 7 7 9 12
29 29 29 28 27 26 25 24 24 23 22 20 19 18 17 17 16 15 14 13 13 12 12 12 13 13 11 10 9 8 7 7 7 7 6 5 4 3 4 5 6 6 6 7 6 5 4 4 6 7 7 9 9 9 9 8 8 7 6 6 6 6 7 8 7 8 8 6 6 5 4 4 4 5 6 8 9 11 12 9 8 9 11 12 12
28 29 29 28 27 26 25 24 24 23 22 20 19 18 17 17 16 16 15 14 13 12 12 13 13 12 11 9 8 8 7 6 6 6 6 5 4 3 4 4 5 6 7 7 7 5 4 5 6 6 7 8 8 8 9 8 8 7 6 5 6 7 9 8 7 8 8 7 7 6 6 5 5 5 7 8 9 11 12 10 9 8 10 10 9
28 28 28 28 27 26 24 23 23 24 23 20 19 19 17 16 16 16 15 14 13 12 12 13 13 12 10 8 7 7 6 6 5 5 6 6 5 4 4 4 4 5 6 8 8 6 5 6 7 7 6 7 8 8 9 9 8 7 6 5 6 9 9 8 7 7 7 8 8 7 7 7 6 6 7 8 8 9 10 10 9 7 8 8 7
28 27 27 27 26 26 25 24 23 24 22 20 20 19 17 17 17 17 16 15 14 12 11 13 13 11 9 7 6 5 6 6 6 6 6 6 6 5 5 5 5 5 6 7 8 7 7 7 7 8 7 6 7 8 8 9 8 7 6 5 7 9 9 8 8 7 8 9 8 8 8 8 7 7 7 7 7 8 9 9 8 7 7 6 6
28 27 25 25 25 24 24 24 23 23 22 20 21 19 18 18 18 17 16 15 15 12 11 12 12 10 8 6 6 5 6 6 6 6 6 6 6 6 6 6 6 6 6 7 7 8 8 8 7 8 8 7 7 7 8 9 9 7 6 6 8 9 9 8 6 7 9 9 10 10 9 9 8 8 7 7 7 7 8 8 8 7 6 5 4
29 28 25 24 24 22 22 22 22 23 22 21 21 20 20 20 19 19 17 15 15 13 12 11 11 9 8 7 6 6 7 6 6 6 7 6 6 6 6 7 7 6 6 7 7 8 8 8 8 8 8 8 7 7 8 9 9 8 7 8 9 9 8 7 6 7 8 9 12 11 10 10 9 9 8 8 7 6 6 7 6 5 5 4 3
28 27 25 25 24 22 22 22 22 22 23 23 23 22 22 21 21 20 18 16 15 13 12 10 10 9 8 8 7 8 8 7 6 7 7 6 7 7 7 7 7 6 7 6 7 8 8 8 8 8 9 9 9 8 8 9 9 8 9 9 9 9 8 6 6 7 7 9 12 11 10 10 9 9 8 7 6 5 5 4 3 3 3 3 3
27 26 26 25 24 22 23 23 22 22 24 25 24 23 23 23 22 21 19 16 15 14 12 10 9 9 9 8 8 8 7 7 7 7 6 6 7 7 7 8 8 8 8 7 8 9 8 8 9 9 9 9 9 10 10 9 9 9 10 10 10 9 7 6 6 8 8 9 10 10 10 10 9 8 7 6 6 5 4 3 2 1 2 3 4
27 27 26 25 25 25 24 23 22 23 25 24 23 22 22 21 20 19 17 15 14 13 11 10 9 9 9 8 8 8 8 7 7 6 6 6 7 7 8 9 9 9 9 8 9 9 9 9 10 10 10 10 9 11 11 11 10 9 9 10 11 9 8 7 8 8 9 9 9 9 9 9 8 8 7 7 5 4 3 2 1 1 2 4 5
26 26 26 27 27 27 26 24 23 24 25 24 22 21 20 19 17 15 15 14 13 12 10 10 10 10 9 8 7 7 7 7 6 6 6 7 7 7 8 8 9 9 8 8 9 9 9 10 10 9 10 10 10 11 12 12 11 9 9 9 11 11 10 9 10 8 7 8 9 10 9 8 8 8 7 7 5 3 2 2 2 3 3 5 6
27 28 28 29 30 30 28 24 22 23 25 24 22 19 18 17 15 14 14 13 12 12 12 11 11 10 9 8 7 7 7 6 6 6 7 7 7 8 7 7 8 8 8 8 8 8 9 10 11 10 10 10 11 12 13 12 10 9 9 8 10 12 11 10 10 8 5 4 7 10 9 8 8 7 6 5 5 3 3 4 4 4 4 6 7
27 28 30 32 32 32 28 24 23 24 24 24 22 20 18 18 17 16 16 15 14 14 14 14 12 11 10 9 8 8 7 7 6 7 7 7 8 8 7 7 8 8 9 9 8 8 9 11 11 10 10 9 9 11 12 12 10 10 9 6 7 9 10 11 10 7 3 2 7 8 8 7 7 6 4 3 6 6 6 6 5 5 5 7 8
29 29 33 34 34 33 28 23 23 25 25 24 22 20 19 19 18 18 18 17 17 16 14 13 13 12 11 9 9 8 8 7 7 7 7 8 8 7 7 7 8 8 9 9 9 8 9 11 11 10 10 10 9 10 11 12 12 11 11 7 4 4 6 9 10 9 7 6 8 9 8 8 7 6 7 8 9 9 8 6 5 5 6 7 8
33 33 34 35 35 33 27 23 25 26 25 24 22 21 20 19 18 17 17 17 17 16 14 13 13 13 12 10 9 8 7 7 6 6 6 7 7 7 7 8 8 8 8 9 9 9 9 10 11 10 10 11 11 11 11 12 13 12 12 10 5 3 2 3 6 11 12 11 10 9 10 11 11 11 11 11 10 9 8 6 7 7 7 8 9
32 32 33 34 34 31 26 24 26 26 25 24 23 21 20 19 17 17 17 16 16 15 15 14 13 12 12 11 10 9 8 8 7 7 6 6 6 6 6 7 7 7 7 8 9 9 10 10 11 11 11 11 12 12 11 12 12 11 12 11 9 6 5 3 3 7 13 18 15 13 13 13 14 14 13 13 12 10 10 9 8 8 8 8 8
31 32 32 32 32 29 26 24 26 26 24 24 23 21 20 18 17 18 18 17 16 14 14 14 12 12 12 11 11 10 9 9 7 7 6 5 5 5 5 5 6 6 7 8 9 10 10 10 11 11 11 11 11 12 12 12 12 11 11 12 11 9 7 5 4 6 11 17 17 17 18 17 17 16 15 14 13 11 10 9 8 7 7 7 6
31 32 31 30 30 29 26 25 27 26 24 23 23 22 20 19 18 18 18 18 17 15 14 13 12 12 12 11 10 10 10 9 7 6 6 6 6 6 5 5 5 6 7 8 8 8 9 9 10 11 11 11 12 13 13 13 13 12 12 12 12 11 8 7 8 9 11 13 15 18 20 20 20 18 16 14 12 10 9 8 8 7 7 7 6
31 32 31 30 29 29 27 25 25 26 25 24 23 22 21 20 19 18 18 17 17 15 15 14 13 13 12 11 10 10 9 8 7 5 4 5 6 6 6 6 6 7 7 7 7 7 7 7 8 9 9 11 12 13 13 13 14 13 13 13 12 11 9 8 8 10 13 13 15 20 20 19 20 19 17 14 12 11 10 10 10 9 9 8 8
Wind_Direction
170 172 169 171 172 171 171 170 170 168 165 162 155 149 145 144 145 148 152 158 162 164 165 164 162 159 156 153 150 149 146 142 138 135 132 128 123 124 128 126 122 117 114 110 109 109 108 109 108 108 105 102 99 95 94 93 90 84 77 72 72 74 74 75 87 100 102 98 92 91 94 102 106 108 106 106 109 110 108 100 97 97 94 94 94
166 169 170 171 173 172 171 170 171 168 165 163 154 148 145 144 145 147 152 155 159 161 163 163 162 160 158 156 154 151 148 144 141 139 134 134 133 132 133 130 126 122 120 117 115 113 113 113 111 110 107 106 102 98 96 93 90 85 77 71 70 70 70 70 76 90 104 107 101 96 97 104 107 108 107 107 110 112 108 100 97 97 94 93 92
163 167 170 170 173 173 172 172 171 168 167 163 154 148 145 144 144 146 152 156 158 159 160 161 161 161 160 157 156 153 148 144 141 139 137 141 140 137 135 131 123 119 120 120 119 116 116 115 113 113 111 108 105 103 101 97 93 87 79 72 69 68 68 67 68 75 97 111 109 107 106 108 111 110 108 108 111 112 109 103 97 94 92 91 91
163 166 169 170 173 174 173 172 171 169 167 163 155 149 145 144 143 146 152 156 158 158 159 161 163 163 160 155 154 152 147 144 142 140 141 145 143 139 133 126 121 120 120 121 121 120 119 117 117 115 111 107 106 105 101 97 92 87 81 74 69 67 66 65 65 69 82 105 112 113 114 116 116 114 113 114 117 117 114 110 105 102 100 97 96
165 166 168 170 173 175 174 173 171 169 167 163 156 149 147 145 144 147 151 157 159 160 160 161 164 162 156 152 149 146 143 140 138 140 145 146 144 141 133 126 126 126 125 124 124 124 122 121 120 118 114 111 110 107 101 95 87 82 80 75 69 67 65 64 64 66 71 86 104 113 118 122 123 122 120 123 127 126 125 124 121 117 113 109 106
168 168 169 170 173 174 174 174 171 169 168 163 157 152 150 149 148 147 147 153 158 160 161 162 161 157 151 148 147 142 140 137 135 142 152 150 147 144 136 130 128 128 129 130 130 128 125 123 121 119 116 113 110 106 102 95 86 80 78 75 71 68 66 64 63 65 67 71 84 99 110 118 127 132 126 127 132 132 135 139 138 134 127 122 114
172 170 170 171 173 173 173 173 170 169 168 164 160 156 154 153 150 146 143 145 152 157 157 157 155 152 148 148 149 144 144 143 143 153 161 152 148 145 138 134 129 130 134 135 134 130 128 124 123 122 119 115 111 105 98 91 87 83 79 76 73 70 67 64 63 64 66 66 71 81 93 103 118 130 126 127 131 130 136 145 149 148 143 134 125
175 172 171 173 174 172 173 172 169 169 168 167 163 159 157 156 151 144 140 140 146 152 153 149 145 144 142 145 148 146 145 147 153 162 162 150 145 142 137 134 130 132 138 138 135 131 129 127 126 125 122 118 113 106 96 89 88 87 83 79 74 70 67 65 63 63 65 65 67 70 81 90 106 119 116 121 130 129 131 142 147 150 151 147 143
175 172 172 173 174 172 172 171 169 169 170 170 166 161 159 158 152 145 140 140 144 149 151 145 137 136 136 139 143 146 148 152 162 164 156 148 145 142 135 132 132 135 140 141 136 133 131 130 131 128 124 119 112 104 96 91 90 89 86 82 77 71 66 65 63 63 64 63 64 64 72 82 91 100 101 106 119 125 122 130 138 142 149 149 148
174 171 172 173 173 172 171 170 170 171 173 172 167 163 161 158 151 145 142 140 144 150 153 145 137 139 142 142 143 148 152 154 158 151 144 146 143 136 129 126 134 138 142 143 139 137 135 134 134 130 126 120 115 106 99 97 95 92 88 85 80 73 68 65 64 64 64 63 63 64 69 77 80 83 88 90 95 105 108 116 126 131 132 129 127
173 172 172 172 170 170 170 171 172 173 174 172 168 165 162 158 150 145 143 144 145 150 152 145 140 143 146 145 145 146 148 147 144 139 140 145 134 127 124 124 136 142 145 146 142 142 140 138 135 129 127 122 118 109 102 101 98 94 90 87 83 77 71 66 63 64 65 64 63 64 66 72 76 79 82 81 83 89 93 99 108 114 109 103 101
172 172 170 169 168 169 172 173 174 174 174 172 169 167 164 157 151 145 144 146 145 146 147 142 141 145 144 144 146 144 144 144 140 138 140 140 131 130 130 130 140 146 148 147 144 143 141 139 135 131 130 126 121 110 104 103 101 97 92 88 84 80 76 68 63 64 65 64 62 61 63 67 74 80 83 81 81 83 84 87 91 94 92 88 86
171 170 169 169 168 170 174 175 175 175 174 172 170 167 165 158 153 147 143 145 142 142 142 139 139 140 140 141 144 144 146 147 144 142 141 138 135 137 134 134 141 146 147 147 145 143 142 141 138 137 135 131 126 113 107 105 102 99 93 87 83 80 79 72 65 64 65 65 63 61 61 63 68 74 81 82 83 83 82 82 84 85 84 84 84
170 167 169 169 169 171 174 175 175 175 174 172 170 168 165 161 155 147 140 141 139 139 138 135 134 135 138 141 143 143 144 144 142 139 134 130 131 132 129 132 140 147 149 149 148 147 146 145 143 144 142 138 132 120 110 107 105 101 96 89 82 81 80 74 68 65 65 66 66 65 63 63 65 69 75 79 82 83 83 83 84 84 83 83 84
170 168 169 170 170 172 174 176 176 175 174 171 169 169 167 161 154 145 139 140 138 139 138 136 136 138 140 141 139 137 136 134 133 130 126 123 122 125 126 132 143 150 153 153 152 151 151 150 150 150 150 147 143 133 118 113 111 105 99 91 84 82 80 74 69 67 66 65 67 70 69 67 67 69 73 75 79 82 84 84 84 85 84 84 83
169 171 170 171 171 172 174 175 176 175 173 170 171 170 166 161 154 146 140 142 140 140 141 141 142 142 140 135 131 128 128 127 127 127 124 124 120 119 121 130 143 150 155 157 156 155 155 154 155 158 159 158 156 150 134 124 117 110 104 95 87 84 81 74 70 69 67 66 66 70 72 69 68 71 75 77 79 81 83 84 84 84 83 83 83
171 174 173 172 173 173 174 174 175 174 172 170 172 170 167 165 156 146 142 144 142 143 145 145 144 140 135 130 128 127 125 124 122 122 121 126 126 122 120 125 137 147 154 159 159 158 158 159 161 164 166 165 163 162 157 143 126 116 110 99 91 88 83 75 71 71 69 69 67 67 71 71 69 71 75 77 78 80 81 83 84 85 84 83 82
174 176 176 175 175 175 174 174 174 172 171 171 171 169 168 166 156 148 145 146 145 147 149 148 146 139 135 132 130 130 128 127 122 121 122 126 130 130 130 130 134 143 153 159 163 163 163 165 166 169 171 171 171 173 181 170 139 123 116 105 96 94 88 78 74 74 72 73 72 70 73 73 71 70 74 76 77 78 79 81 82 83 84 84 83
176 178 177 177 177 175 173 174 174 172 173 171 169 168 168 164 156 152 148 148 150 152 151 148 147 141 139 136 131 132 132 131 126 127 131 132 135 136 141 140 137 143 152 160 165 168 168 169 170 173 175 177 180 183 194 194 160 135 121 111 104 99 92 85 78 76 76 76 75 75 75 75 74 70 71 75 75 75 76 77 78 79 81 83 83
176 178 176 178 178 175 174 175 174 173 174 170 170 169 167 163 158 155 151 152 154 154 153 150 151 147 144 141 136 138 138 137 135 135 135 133 132 133 137 135 134 142 151 162 169 173 173 174 175 176 179 183 188 191 197 203 182 152 131 119 115 106 96 92 84 78 79 78 77 75 76 76 75 74 73 74 74 77 77 77 76 78 81 82 83
172 175 174 175 177 176 175 176 175 174 174 170 171 171 167 166 161 159 156 156 156 156 157 156 158 154 149 145 142 143 144 146 145 138 131 129 128 128 129 128 131 136 142 155 167 175 178 179 180 181 184 186 191 195 198 203 192 168 147 132 125 117 105 97 90 83 81 80 79 75 73 72 71 75 79 76 77 81 82 82 80 78 80 81 83
170 173 175 176 177 178 176 176 176 176 175 173 174 172 170 170 166 164 159 158 160 159 161 160 160 157 151 149 146 145 146 149 143 135 131 131 132 130 130 130 132 134 137 144 156 171 180 184 186 187 188 190 194 197 200 202 196 179 163 149 136 127 117 104 95 89 87 83 79 74 69 66 64 66 75 78 78 81 82 83 83 80 77 76 79
175 175 175 178 178 177 177 176 177 177 177 176 176 174 173 170 169 167 163 162 164 164 163 160 158 156 153 151 149 146 144 145 141 137 137 137 136 133 133 133 134 134 138 143 148 160 172 183 189 192 193 195 197 200 204 204 199 186 171 159 146 137 126 110 99 97 95 87 80 73 64 60 56 53 60 74 75 74 79 81 81 81 78 75 74
178 178 177 179 179 177 177 178 178 178 179 179 178 178 175 171 170 170 168 167 168 165 164 161 159 157 155 155 155 151 148 147 143 140 140 140 137 132 130 129 134 137 139 145 149 155 164 174 184 193 197 199 200 202 205 205 200 189 176 167 157 148 136 119 108 104 102 92 82 74 63 56 51 47 48 62 91 94 84 86 87 84 85 83 80
182 182 180 182 182 179 180 180 179 180 182 181 180 180 176 172 173 174 172 170 169 164 164 165 163 160 160 162 161 156 150 147 144 142 139 136 133 129 130 132 139 144 146 148 155 164 164 167 176 187 197 201 201 202 205 206 202 191 183 177 168 160 148 132 119 110 103 90 80 72 64 54 45 46 47 51 91 139 122 107 108 102 101 96 90
189 187 184 186 187 183 183 183 181 182 184 182 182 181 178 175 176 177 175 172 168 164 167 171 169 166 166 164 162 156 147 144 144 143 139 135 135 134 135 137 142 149 155 150 153 161 161 165 174 182 192 199 200 200 202 205 202 195 191 186 176 167 153 136 121 110 100 82 72 65 59 52 43 45 48 47 61 129 166 160 151 136 124 110 93
192 191 188 191 191 187 186 186 185 185 185 182 182 183 181 179 178 178 177 175 168 165 169 174 174 171 167 161 156 151 144 144 146 144 140 137 138 141 143 140 139 152 157 145 143 150 154 162 172 179 186 194 197 198 201 204 202 199 198 191 178 165 149 130 118 109 96 78 71 63 55 50 46 44 49 46 41 77 174 181 181 174 159 137 92
193 193 194 196 193 189 188 189 190 188 185 183 184 185 184 181 180 179 178 178 171 169 172 176 178 173 168 162 155 150 146 147 150 151 148 145 145 149 150 144 145 160 161 146 143 151 157 161 166 176 183 188 193 197 201 204 201 200 201 195 181 166 148 132 123 114 97 83 75 67 59 55 54 48 47 37 24 59 159 181 187 190 182 170 68
193 195 196 197 195 193 189 191 191 188 185 184 186 187 185 184 183 181 179 179 177 177 180 182 183 177 171 165 158 154 154 153 154 157 155 151 151 155 155 152 160 173 170 160 158 163 164 163 165 174 182 184 189 196 202 204 201 198 200 198 191 182 167 149 134 123 106 97 85 73 70 66 68 58 50 41 34 73 128 157 168 175 170 89 37
193 196 198 197 197 197 192 192 190 188 187 186 188 189 188 187 185 184 182 180 180 182 185 186 186 181 174 168 161 158 160 158 156 159 158 154 155 162 167 168 178 189 185 177 175 181 183 181 179 179 184 185 187 192 199 205 202 200 201 205 211 210 196 171 143 134 133 123 108 91 82 73 72 62 59 49 46 80 95 90 100 78 94 63 44
193 197 199 199 199 199 195 193 190 189 190 189 191 191 190 190 187 187 184 183 184 184 188 190 187 183 177 172 165 163 166 165 161 163 161 158 159 167 177 183 190 194 195 194 188 193 197 198 195 190 191 190 191 191 194 201 200 200 203 211 221 219 210 185 156 151 154 143 124 99 90 86 74 65 73 61 57 91 93 78 62 42 48 50 53
193 198 200 201 201 201 198 194 192 192 193 193 193 192 191 191 191 189 186 186 186 186 191 192 188 185 181 176 171 170 172 170 166 166 163 163 168 175 183 191 196 195 197 198 193 192 195 198 200 197 199 198 198 197 195 194 194 196 201 212 220 219 213 185 166 164 162 155 137 125 135 127 94 79 85 81 81 100 103 85 52 45 61 66 77
195 200 201 202 203 203 201 196 194 196 197 197 195 192 190 191 193 191 188 189 187 189 194 192 190 189 184 180 177 176 176 179 180 174 168 168 177 185 191 194 196 196 196 195 192 192 194 197 199 201 204 202 202 203 200 196 193 197 201 209 213 213 204 188 179 175 168 160 155 152 160 150 121 103 96 94 93 108 117 96 61 71 92 92 95
196 201 204 204 206 205 203 200 197 197 197 199 198 194 191 191 193 191 191 190 188 192 196 193 193 191 185 184 183 182 183 188 189 185 180 177 176 183 192 191 192 198 201 199 195 195 200 197 198 204 207 202 199 201 200 196 194 196 198 204 208 203 196 195 190 184 177 164 162 165 163 155 135 114 107 105 95 106 119 107 84 90 96 93 91
199 203 206 206 208 208 205 204 202 198 197 199 197 194 194 193 192 193 192 191 190 195 197 195 194 190 186 187 187 188 190 191 189 190 192 190 184 184 191 188 191 201 209 212 210 207 208 204 199 201 204 200 195 195 193 191 194 192 190 192 191 187 190 196 190 185 185 169 162 166 163 156 139 118 112 110 98 105 119 119 112 105 93 87 83
206 208 209 209 211 212 208 207 205 200 197 197 196 193 194 193 192 193 193 192 191 194 197 195 193 191 187 187 188 192 195 196 196 197 199 199 199 205 207 203 205 207 212 218 219 215 210 206 203 196 193 196 193 189 186 185 188 190 185 174 172 179 183 189 191 188 179 164 162 165 160 153 139 124 115 111 106 109 118 123 124 111 94 89 87
211 212 213 212 213 215 212 211 209 204 199 196 194 192 192 192 191 191 192 193 191 193 196 195 194 191 187 187 190 198 202 204 208 207 205 206 210 217 221 222 222 216 212 214 220 216 204 199 203 196 184 187 193 188 182 181 182 184 180 165 170 176 177 184 187 179 167 160 166 170 159 150 141 135 126 118 112 109 112 119 117 104 96 86 78
213 215 217 216 216 219 216 214 211 206 200 195 192 191 191 189 188 189 189 190 192 195 195 194 195 193 191 195 199 205 209 212 214 211 209 212 216 218 221 226 223 215 209 209 215 210 198 192 194 195 183 174 183 183 179 180 180 182 173 159 168 170 169 179 176 166 165 162 170 173 157 147 146 144 140 129 119 111 107 109 109 105 99 86 74
214 215 218 218 219 221 219 213 209 205 198 193 192 191 190 187 185 186 186 188 192 193 191 190 190 192 196 200 202 209 215 219 216 211 212 212 215 219 218 221 216 211 209 207 208 201 195 191 183 187 183 166 169 180 184 184 183 184 171 156 160 158 155 161 160 163 168 166 170 167 151 148 153 151 147 137 126 120 111 104 103 104 97 85 74
216 217 218 218 219 221 215 207 203 200 194 191 192 191 188 186 184 185 185 187 189 187 184 184 185 190 198 201 206 212 215 219 213 208 212 209 213 218 213 210 209 210 212 205 201 196 193 191 179 179 181 169 167 180 191 194 189 182 169 155 154 152 144 145 161 169 172 173 167 157 149 154 159 157 152 144 136 132 125 114 104 97 79 60 49
216 220 220 220 222 222 213 204 198 194 191 190 191 190 187 185 185 186 185 186 186 184 181 183 187 193 197 200 204 205 205 208 206 205 210 210 215 220 211 206 208 210 210 205 200 196 191 190 180 174 179 177 172 180 193 202 197 183 170 159 152 147 136 143 174 177 178 179 164 154 158 164 167 166 164 160 154 149 146 137 110 75 51 47 48
215 218 219 219 223 222 214 204 195 191 189 188 189 189 188 188 188 186 184 183 183 181 180 184 190 193 194 193 192 190 191 195 199 203 206 207 210 219 215 208 208 210 210 208 200 193 192 191 184 176 179 182 179 184 192 199 203 200 186 164 149 141 134 152 179 179 180 182 169 164 170 175 179 181 181 177 170 160 159 157 99 69 58 59 56
216 218 219 220 222 221 214 203 194 190 185 185 188 188 190 190 188 185 182 179 179 179 179 184 188 189 189 186 181 179 182 186 190 195 199 200 199 204 208 201 201 204 203 205 196 190 190 189 186 180 180 183 185 189 192 196 204 206 195 169 153 145 138 160 182 181 184 185 174 168 174 190 191 190 196 185 175 169 151 123 95 91 74 64 61
216 220 220 221 222 220 214 200 190 189 185 184 186 188 190 187 182 181 179 178 180 181 180 184 186 185 183 180 177 175 178 182 186 191 192 192 187 185 187 185 187 189 189 194 194 192 193 190 187 183 183 188 190 191 192 196 203 202 195 177 164 155 144 168 182 173 187 187 160 156 166 193 197 199 214 191 162 150 126 105 99 93 73 69 72
208 216 218 219 219 219 213 196 187 189 186 185 186 188 189 183 179 179 180 180 181 184 184 183 181 177 175 175 176 177 180 183 182 184 182 179 177 175 176 176 177 181 182 185 187 191 194 194 193 186 185 192 197 198 195 195 200 205 209 192 172 166 163 179 175 148 153 139 128 140 158 185 197 202 206 148 126 119 112 105 97 82 74 78 77
204 209 214 216 216 216 210 192 187 190 187 187 188 188 186 183 183 183 185 183 181 184 183 178 173 170 171 173 176 179 181 181 179 178 176 176 179 182 184 177 175 179 182 186 185 187 192 195 197 193 189 190 199 207 204 202 201 205 214 205 176 169 170 182 171 142 118 95 110 126 142 157 156 143 124 109 107 108 108 104 89 79 82 85 77
211 211 213 215 214 213 206 191 190 191 188 188 188 187 185 183 185 189 190 185 183 181 172 164 165 167 169 171 174 178 179 179 178 178 178 182 189 196 195 183 178 180 184 191 192 191 192 194 200 202 200 198 198 205 209 209 208 207 212 212 208 215 201 202 181 156 131 108 114 131 134 137 130 119 113 107 104 102 103 98 90 87 84 80 75
215 217 215 214 213 211 204 194 193 191 188 188 188 187 186 184 185 189 190 184 182 177 164 160 164 165 167 168 174 178 178 179 176 177 180 186 193 197 197 192 187 185 184 189 195 199 196 197 204 208 210 210 204 203 209 213 213 214 215 219 227 236 248 260 212 179 150 130 132 144 139 136 131 123 117 112 106 103 101 98 94 88 80 73 71
214 221 219 216 215 211 203 198 196 192 189 188 188 188 187 185 185 189 187 180 180 177 168 166 167 167 169 171 176 180 180 179 178 184 194 206 211 205 203 202 196 193 192 192 197 205 206 207 215 217 217 219 213 207 209 213 218 226 228 231 235 235 239 233 208 206 177 149 147 154 147 142 138 128 122 119 114 111 107 105 101 89 80 74 70
213 220 221 218 216 210 203 203 200 194 190 190 191 190 187 185 187 190 185 179 179 178 175 173 171 173 176 176 178 179 178 177 178 188 200 214 222 217 214 212 203 199 199 197 195 202 209 213 220 223 222 223 220 214 213 214 216 226 234 238 240 236 234 228 210 198 187 174 165 158 151 150 145 133 126 122 117 116 113 110 111 104 96 89 85
214 219 221 220 216 210 206 206 203 196 191 192 194 192 188 185 188 189 183 180 181 178 178 177 175 179 180 180 181 180 178 174 171 165 165 192 206 208 211 208 205 203 201 196 187 187 200 210 217 221 222 223 221 218 218 218 217 220 226 233 240 242 246 253 240 203 189 188 171 155 153 155 148 138 131 123 115 112 109 110 113 111 108 103 100